Regional Weather Roundup
Issued by NWS

Home | Current Version | Previous Version | Graphics & Text | Print | Product List | Glossary Off
Versions: 1 2 3 4 5 6 7 8 9 10 11 12 13 14 15 16 17 18 19 20 21 22 23 24 25 26 27 28 29 30 31 32 33 34 35 36 37 38 39 40 41 42 43 44 45 46 47 48 49 50

000
ASUS43 KMPX 270210
RWRMN
WEATHER ROUNDUP FOR MINNESOTA
NATIONAL WEATHER SERVICE TWIN CITIES/CHANHASSEN MN
800 PM CST MON JAN 26 2015


NOTE: "FAIR" INDICATES FEW OR NO CLOUDS BELOW 12,000 FEET WITH NO
SIGNIFICANT WEATHER AND/OR OBSTRUCTIONS TO VISIBILITY. N/A MEANS
CURRENT SKY AND/OR WEATHER CONDITIONS ARE NOT AVAILABLE.

MNZ060>063-068>070-270300-
   Twin Cities Metro

CITY           SKY/WX    TMP DP  RH WIND       PRES   REMARKS
TWIN CITIES    CLOUDY    38  29  70 NW13      29.90R
ST PAUL        CLOUDY    39  30  70 NW9       29.91R
CRYSTAL        CLOUDY    39  30  70 NW9       29.89R
BLAINE         CLOUDY    39  30  70 NW8       29.88R
LAKEVILLE      CLOUDY    36  30  80 NW8       29.89R
EDEN PRAIRIE   CLOUDY    39  29  67 NW10      29.89R
SOUTH ST PAUL  CLOUDY    40  30  67 NW8       29.89R
LAKE ELMO      CLOUDY    37  32  81 NW9       29.89R
$$
MNZ001>005-007-008-013>017-022>024-027-028-270300-
   Northwest Minnesota

CITY           SKY/WX    TMP DP  RH WIND       PRES   REMARKS
BEMIDJI        CLOUDY    29  25  84 NW8       29.93R WCI  21
HALLOCK        CLOUDY    27  25  93 N7        29.99R WCI  19
ROSEAU         CLOUDY    27  21  80 N3        29.96S
WARROAD        CLOUDY    25  21  86 N3        29.96R
THIEF RVR FALL CLOUDY    28  25  86 N6        29.98R WCI  22
CROOKSTON      CLOUDY    28  27  93 N7        30.00S WCI  21
FOSSTON        CLOUDY    27  25  93 NW7       29.97R WCI  19
DETROIT LAKES  CLOUDY    30  28  93 NW12      29.98R WCI  21
MOORHEAD       PTCLDY    30  30 100 N8        29.99F WCI  23
PARK RAPIDS    CLOUDY    31  25  78 N6        29.92R WCI  25
MAHNOMEN       CLOUDY    28  26  90 NW8       29.97R WCI  20
$$
MNZ006-009>011-018-025>026-270300-
   North Central Minnesota

CITY           SKY/WX    TMP DP  RH WIND       PRES   REMARKS
BAUDETTE       CLOUDY    26  21  81 NW9       29.93R WCI  17
FLAG ISLAND    CLOUDY    25  21  86 NW8       29.94S WCI  16
INTL FALLS     CLOUDY    26  21  81 NW6       29.92R WCI  19
WASKISH        CLOUDY    28  25  86 CALM      29.93S
BIG FORK       CLOUDY    28  23  80 N5        29.92R WCI  23
LONGVILLE      CLOUDY    30  27  86 N6        29.91S WCI  24
GRAND RAPIDS   CLOUDY    30  25  80 N14       29.90R WCI  20
CRANE LAKE     CLOUDY    25  21  86 CALM      29.93R
ORR            CLOUDY    25  21  86 CALM      29.89R
COOK           CLOUDY    25  23  93 N6        29.91R WCI  18
WALKER         CLOUDY    30  25  81 CALM      29.92R
$$
MNZ012-019>021-037-270300-
   Northeast Minnesota

CITY           SKY/WX    TMP DP  RH WIND       PRES   REMARKS
DULUTH         CLOUDY    29  24  82 N12       29.87R WCI  19
ELY            CLOUDY    23  21  93 N3        29.88R
HIBBING        CLOUDY    29  22  75 N10       29.90R WCI  20
EVELETH        CLOUDY    28  25  86 N7        29.90R WCI  21
DULUTH HARBOR  CLOUDY    28  27  93 CALM      29.91R
TWO HARBORS    CLOUDY    30  27  86 N5        29.86R WCI  25
SILVER BAY     CLOUDY    27  25  93 CALM      29.87R
GRAND MARAIS     N/A     24  19  81 N5        29.90R WCI  18
G MARAIS ARPRT CLOUDY    18  14  86 N6        29.84R WCI   9
$$
MNZ029>031-032-039>041-046>048-054>057-064-270300-
   West Central Minnesota

CITY           SKY/WX    TMP DP  RH WIND       PRES   REMARKS
FERGUS FALLS   CLOUDY    28  27  93 N8        30.00S WCI  20
WHEATON        CLEAR     28  28 100 N6        30.02R WCI  22
MORRIS         CLEAR     32  30  93 N14       29.96R WCI  22
ALEXANDRIA     CLOUDY    30  27  88 NW9       29.95R WCI  22
ELBOW LAKE     CLOUDY    29  27  92 N13       29.97R WCI  19
WADENA         CLOUDY    28  27  93 NW8       29.93R WCI  20
GLENWOOD       CLOUDY    30  28  93 NW10      29.95R WCI  21
APPLETON       CLEAR     34  30  86 NW7       29.97S WCI  28
BENSON         CLEAR     32  28  86 N6        29.97R WCI  26
ORTONVILLE     CLEAR     34  30  86 N3        29.98R
MADISON        CLEAR     37  36  93 NW6       29.97S
WILLMAR        CLOUDY    36  30  80 NW12      29.96R
$$
MNZ033>034-036-042>043-049>051-058-059-270300-
   Central Minnesota

CITY           SKY/WX    TMP DP  RH WIND       PRES   REMARKS
ST CLOUD       CLOUDY    35  28  75 NW9       29.90R WCI  28
SAUK CENTRE    CLOUDY    32  28  86 NW10      29.93R WCI  23
PAYNESVILLE    CLOUDY    31  27  84 NW7       29.94R WCI  25
AITKIN         CLOUDY    36  27  69 N7        29.89S
PINE RIVER     CLOUDY    32  27  80 N9        29.95R WCI  24
BRAINERD       CLOUDY    33  27  78 N12       29.91R WCI  24
STAPLES        CLOUDY    30  27  86 N9        29.92R WCI  22
LONG PRAIRIE   CLOUDY    32  28  86 NW10      29.93R WCI  24
LITTLE FALLS   CLOUDY    34  28  80 NW8       29.92R WCI  27
LITCHFIELD     MOCLDY    36  30  80 NW9       29.93S
BUFFALO        CLOUDY    36  30  78 W8        29.92R
MAPLE LAKE     CLOUDY    37  31  81 NW10      29.92R
$$
MNZ037-044-045-052-053-270300-
   East Central Minnesota

CITY           SKY/WX    TMP DP  RH WIND       PRES   REMARKS
PRINCETON      CLOUDY    37  30  75 NW5       29.90R
MORA           CLOUDY    36  30  80 N7        29.92R
CAMBRIDGE      DRIZZLE   39  28  65 NW6       29.88R
RUSH CITY      CLOUDY    36  30  80 NW7       29.90R
MOOSE LAKE     CLOUDY    32  28  86 N7        29.88R WCI  26
HINCKLEY       CLOUDY    36  30  80 NW9       29.89R
CLOQUET        CLOUDY    30  25  80 N8        29.88R WCI  23
MCGREGOR       CLOUDY    32  28  86 NW9       29.90R WCI  24
$$
MNZ071>073-080-081-089-090-097-098-270300-
   Southwest Minnesota

CITY           SKY/WX    TMP DP  RH WIND       PRES   REMARKS
MONTEVIDEO     CLEAR     34  32  93 N8        29.98R WCI  27
GRANITE FALLS  CLEAR     33  31  93 CALM      29.98R
CANBY          CLEAR     36  32  87 NW8       29.99R
MARSHALL       MOCLDY    34  28  80 NW12      29.98S WCI  25
REDWOOD FALLS  CLEAR     37  31  78 NW10      29.95R
OLIVIA         CLEAR     32  30  93 NW9       29.95R WCI  24
PIPESTONE      CLEAR     36  32  87 NW6       29.96S
WINDOM         PTCLDY    36  34  93 NW9       29.95S
WORTHINGTON    CLOUDY    34  30  86 NW13      29.97R WCI  25
JACKSON        MOCLDY    36  32  87 NW13      29.95R
TRACY          MOCLDY    37  33  87 NW12      29.96S
SLAYTON        PTCLDY    35  32  88 NW10      29.96S WCI  27
$$
MNZ065>067-074>077-082>085-091>093-270300-
   South Central Minnesota

CITY           SKY/WX    TMP DP  RH WIND       PRES   REMARKS
MANKATO        CLOUDY    37  30  75 NW14      29.92R
NEW ULM        CLOUDY    36  30  80 NW16      29.94R
ST JAMES       CLOUDY    37  34  87 NW15      29.96R
FAIRMONT       CLOUDY    37  30  75 NW13      29.94R
GLENCOE        CLOUDY    37  32  84 NW12      29.91S
FARIBAULT      CLOUDY    37  30  75 NW10G16   29.90R
OWATONNA       PTCLDY    36  30  80 NW15      29.89R
WASECA         CLOUDY    36  30  80 NW12      29.92R
ALBERT LEA     CLOUDY    37  32  81 NW10G18   29.90R
$$
MNZ078>079-086>088-094>096-270300-
   Southeast Minnesota

CITY           SKY/WX    TMP DP  RH WIND       PRES   REMARKS
ROCHESTER      MOCLDY    35  31  85 NW14      29.85R WCI  26
RED WING       CLOUDY    39  32  75 NW3       29.86R
STANTON        CLOUDY    37  32  82 W8        29.88R
DODGE CENTER   CLOUDY    37  34  87 NW13      29.86R
WINONA         CLOUDY    30  28  93 CALM      29.87S
AUSTIN         CLOUDY    36  32  87 NW13      29.87R
PRESTON        CLOUDY    36  32  87 NW12      29.85R
$$
ABBREVIATIONS USED IN REMARKS
   TC - TEMPERATURES IN CELSIUS
  WCI - WIND CHILL INDEX
   HX - HEAT INDEX
  VSB - VISIBILITY
$$



USA.gov is the U.S. government's official web portal to all federal, state and local government web resources and services.